Find STARLINK-37540

NORAD ID: 68914 Constellation: starlink operational
LEOCIRCULARRETROGRADE

实时位置

正在加载3D地球...

关于 STARLINK-37540

正在加载描述...

即将过境

Passes for default location (London). Set your location on the main map for personalized predictions.

高度历史

Loading altitude history...

两行轨道根数

1 68914U 26097V 26125.50001156 -.02029974 11854-2 -47465-2 0 9990
2 68914 97.2868 320.4967 0001451 87.0151 151.7382 15.97136184 2064
Epoch: May 5, 2026 • Age: 8 hours